Flag for Greece Weather past 2 weeks in Peristeri, Greece

Now
63 °F

Fog.


Feels Like: 63 °F
Forecast: 50 / 62 °F
Wind: 9 mph from South

Location: Elefsis Airport

Current Time: Mar 27, 2015 at 2:41:12 PM

Latest Report: Mar 27, 2015 at 1:50 PM


Visibility: 3 mi

Pressure: 29.59 "Hg

Humidity: 83%

Dew point: 57 °F

Location of PeristeriLocation

Historic Weather in Peristeri — Graph

°F

Peristeri temperature yesterday

Maximum temperature yesterday: 61 °F (at 9:50 AM)
Minimum temperature yesterday: 54 °F (at 12:20 AM)
Average temperature yesterday: 57 °F

Past Weeks' High & Low Weather Summary

 TemperatureHumidityPressure
High63 °F (Mar 24, 12:20 PM)100% (Mar 26, 7:20 PM)30.45 "Hg (Mar 26, 7:20 PM)
Low34 °F (Mar 21, 6:50 AM)25% (Mar 21, 1:20 PM)29.59 "Hg (Mar 27, 1:20 PM)
Average51 °F67%30.10 "Hg
* Reported Mar 12 1:20 PM — Mar 27 1:20 PM, Peristeri, Weather by CustomWeather, © 2015

Note: Actual official high and low records may vary slightly from our data, if they occured in-between our weather recording intervals... More about our weather records

Advertising

Peristeri weather history for previous 24 hours

 ConditionsComfort  
Time TempWeatherWind HumidityBarometerVisibility
1:20 PM
Fri, Mar 27
63 °FFog.9 mph83%29.59 "Hg3 mi
12:50 PM61 °FFog.7 mph88%29.62 "Hg2 mi
12:20 PM61 °FFog.6 mph88%29.62 "Hg2 mi
11:50 AM61 °FFog.6 mph83%29.62 "Hg2 mi
11:20 AM61 °FFog.7 mph83%29.62 "Hg2 mi
10:50 AM61 °FFog.9 mph83%29.65 "Hg2 mi
10:20 AM61 °FFog.8 mph88%29.62 "Hg2 mi
9:50 AM61 °FFog.7 mph88%29.62 "Hg2 mi
9:20 AM61 °FFog.5 mph83%29.62 "Hg3 mi
8:50 AM59 °FFog.No wind82%29.65 "Hg3 mi
8:20 AM59 °FBroken clouds.5 mph82%29.62 "Hg4 mi
7:50 AM61 °FPartly sunny.No wind77%29.62 "Hg4 mi
7:20 AM59 °FPartly sunny.3 mph77%29.62 "Hg4 mi
6:50 AM59 °FPartly sunny.3 mph77%29.65 "Hg4 mi
6:20 AM59 °FPartly sunny.No wind77%29.65 "Hg4 mi
5:50 AM59 °FPassing clouds.No wind77%29.65 "HgN/A
4:20 AM57 °FPassing clouds.6 mph77%29.68 "HgN/A
3:50 AM57 °FPassing clouds.7 mph77%29.68 "HgN/A
3:20 AM57 °FPassing clouds.8 mph77%29.68 "HgN/A
2:50 AM55 °FPartly cloudy.6 mph82%29.71 "HgN/A
2:20 AM55 °FPartly cloudy.No wind82%29.71 "HgN/A
1:50 AM59 °FPassing clouds.No wind77%29.74 "Hg5 mi
1:20 AM55 °FPassing clouds.No wind100%29.74 "Hg5 mi
12:50 AM55 °FOvercast.No wind100%29.74 "Hg4 mi
12:20 AM57 °FOvercast.No wind88%29.74 "Hg4 mi
11:50 PM
Thu, Mar 26
57 °FOvercast.12 mph88%29.77 "Hg4 mi
11:20 PM57 °FLight rain. Overcast.10 mph94%29.77 "Hg4 mi
10:50 PM57 °FLight rain. Overcast.14 mph94%29.77 "Hg4 mi
10:20 PM57 °FLight rain. Overcast.No wind94%29.77 "Hg4 mi
9:50 PM57 °FRain. Overcast.No wind88%29.77 "Hg4 mi
9:20 PM57 °FRain. Overcast.No wind88%29.77 "Hg4 mi
8:50 PM57 °FRain. Overcast.7 mph88%29.77 "Hg4 mi
8:20 PM57 °FRain. Fog.No wind88%29.80 "Hg3 mi
7:50 PM55 °FRain. Fog.No wind100%29.80 "Hg3 mi
7:20 PM55 °FRain. Fog.No wind100%29.83 "Hg2 mi
6:50 PM57 °FRain. Fog.5 mph88%29.83 "Hg2 mi
6:20 PM57 °FRain. Fog.6 mph88%29.83 "Hg2 mi
5:50 PM57 °FRain. Fog.7 mph88%29.86 "Hg2 mi
5:20 PM57 °FRain. Fog.7 mph88%29.86 "Hg2 mi
4:50 PM59 °FLight rain. Mostly cloudy.8 mph82%29.86 "Hg5 mi
4:20 PM57 °FLight rain. Mostly cloudy.9 mph88%29.86 "Hg4 mi
3:50 PM59 °FLight rain. Mostly cloudy.9 mph82%29.89 "Hg3 mi
3:20 PM57 °FLight rain. Fog.9 mph88%29.89 "Hg2 mi
2:50 PM61 °FLight rain. Mostly cloudy.9 mph77%29.89 "Hg4 mi
2:20 PM61 °FMostly cloudy.9 mph77%29.92 "HgN/A
Weather by CustomWeather, © 2015

See weather overviewHow to use our weather pages